Tracking 31080 objects as of 20-Jul-2025
HD Live streaming from Space Station
objects crossing your sky now

CZ-6A DEB

Track CZ-6A DEB now!
10-day predictions


NORAD ID: 56683
Int'l Code: 2022-151AHK
Perigee: 835.4 km
Apogee: 899.4 km
Inclination: 98.8 °
Period: 102.1 minutes
Semi major axis: 7238 km
RCS: Unknown
Launch date: November 11, 2022
Source: People's Republic of China (PRC)
Launch site: Taiyaun Space Center, China (TSC)

Note: This is SATELLITE DEBRIS
Your satellite tracking list
Your tracking list is empty




NASA's NSSDC Master Catalog

Two Line Element Set (TLE):
1 56683U 22151AHK 25201.49942105  .00000197  00000-0  13573-3 0  9992
2 56683  98.8261 201.8720 0044237 177.0740 183.0698 14.09732249113225
Source of the keplerian elements: AFSPC